CDT,Max TemperatureF,Mean TemperatureF,Min TemperatureF,Max Dew PointF,MeanDew PointF,Min DewpointF,Max Humidity, Mean Humidity, Min Humidity, Max Sea Level PressureIn, Mean Sea Level PressureIn, Min Sea Level PressureIn, Max VisibilityMiles, Mean VisibilityMiles, Min VisibilityMiles, Max Wind SpeedMPH, Mean Wind SpeedMPH, Max Gust SpeedMPH,PrecipitationIn, CloudCover, Events, WindDirDegrees
2012-9-1,88,80,72,70,68,66,84,72,53,29.95,29.92,29.89,10,10,10,16,9,24,0.00,1,,6
2012-9-2,89,74,60,69,64,59,97,76,46,29.96,29.91,29.85,10,9,2,7,2,,0.00,0,,96
2012-9-3,91,78,66,72,69,64,97,74,50,29.89,29.86,29.80,10,10,6,15,6,23,0.01,1,Rain-Thunderstorm,120
2012-9-4,95,80,66,73,69,61,93,71,47,29.87,29.81,29.72,10,10,7,9,5,,0.00,0,,166
2012-9-5,90,78,66,66,60,50,87,58,37,29.91,29.82,29.72,10,10,10,13,5,20,0.00,0,,328
2012-9-6,89,72,55,66,58,50,87,62,35,30.00,29.89,29.77,10,10,10,13,5,16,0.00,0,,140
2012-9-7,75,65,53,67,59,49,87,73,59,30.09,29.91,29.74,10,10,5,20,9,31,0.12,1,Rain-Thunderstorm,311
2012-9-8,82,64,46,51,45,38,90,57,21,30.18,30.08,29.96,10,10,10,14,6,21,0.00,0,,298
2012-9-9,75,62,48,50,47,43,80,57,38,30.22,30.14,30.03,10,10,10,10,6,,0.00,0,,12
2012-9-10,82,64,46,53,50,44,93,63,33,30.15,30.06,29.95,10,10,10,17,5,24,0.01,0,,164
2012-9-11,91,74,57,55,52,46,81,50,23,29.97,29.93,29.88,10,10,10,21,12,32,0.00,0,,175
2012-9-12,84,70,57,63,55,43,87,61,46,30.21,30.01,29.91,10,10,5,16,9,26,0.14,3,Rain-Thunderstorm,120
2012-9-13,60,56,51,56,52,49,100,91,78,30.41,30.32,30.16,10,9,4,15,10,26,1.26,6,Rain-Thunderstorm,21
2012-9-14,72,59,46,54,47,42,100,78,38,30.41,30.36,30.30,10,7,0,7,2,,0.01,0,Fog,234
2012-9-15,78,61,45,60,53,43,93,73,48,30.30,30.19,30.09,10,10,10,14,3,,0.01,3,,154
2012-9-16,73,64,55,63,59,54,100,86,66,30.08,30.02,29.93,10,8,2,8,3,,0.00,3,,171
2012-9-17,73,59,48,63,55,46,100,89,67,30.03,29.94,29.90,10,5,0,17,4,36,0.03,4,Fog-Rain,8
2012-9-18,69,56,42,46,40,33,97,62,31,30.13,30.06,29.98,10,10,10,10,5,,0.00,0,,306
2012-9-19,86,68,50,54,48,42,74,52,27,29.97,29.89,29.79,10,10,10,15,9,24,0.00,0,,208
2012-9-20,77,60,46,45,40,33,77,48,22,30.06,30.00,29.95,10,10,10,9,3,16,0.00,0,,271
2012-9-21,78,63,48,47,40,33,83,47,20,29.94,29.87,29.83,10,10,10,22,6,30,0.00,0,,308
2012-9-22,64,54,42,42,32,25,80,48,23,30.29,30.18,29.94,10,10,10,15,6,22,0.00,0,,339
2012-9-23,70,50,32,39,34,30,92,57,27,30.37,30.28,30.21,10,10,10,7,1,,0.00,0,,132
2012-9-24,77,60,44,55,47,38,79,61,44,30.20,29.99,29.80,10,10,10,10,4,20,0.00,0,,127
2012-9-25,84,70,55,57,55,52,89,62,38,29.85,29.81,29.77,10,10,10,10,3,,0.00,0,,21
2012-9-26,75,66,55,57,49,40,87,59,36,30.12,30.00,29.83,10,10,7,7,3,,0.00,1,,27
2012-9-27,78,60,43,48,40,35,86,54,22,30.19,30.14,30.10,10,10,7,7,3,,0.00,0,,345
2012-9-28,75,59,43,57,46,40,93,67,32,30.21,30.15,30.10,10,10,5,12,2,,0.00,0,,116
2012-9-29,78,60,42,49,43,39,96,61,26,30.19,30.11,30.04,10,10,10,8,1,,0.00,0,,47
2012-9-30,81,64,48,47,44,42,86,55,26,30.03,29.96,29.89,10,10,10,8,2,,0.00,0,,299